EHI
0 0 0 0 0 0 0 0 0 0 0 0 0 0 0 0 1 2 10 25 36 39 37 28 17 9 5 3 3 3 2 1 0 0 0 0 0 0 0 0 0 0 0
0 0 0 0 0 0 0 0 0 0 0 0 0 0 0 0 0 1 8 19 30 36 37 32 23 17 12 8 6 5 3 1 0 0 0 0 0 0 0 0 0 0 0
0 0 0 0 0 0 0 0 0 0 0 0 0 0 0 0 0 1 4 10 17 24 30 32 31 28 23 18 13 8 5 3 1 0 0 0 0 0 0 0 0 0 0
0 1 1 0 0 0 0 0 0 0 0 0 0 0 0 0 0 0 1 3 5 9 16 23 29 30 27 22 16 10 6 4 2 0 1 1 1 1 0 0 0 0 0
1 2 1 0 0 0 0 0 0 0 0 0 0 0 0 0 0 0 0 0 0 1 4 10 18 21 20 16 12 7 4 3 2 1 1 2 2 1 0 0 0 1 1
2 2 2 1 1 1 0 0 0 0 0 0 0 0 0 0 0 0 0 0 0 0 0 3 7 9 9 8 6 4 3 2 2 1 1 2 3 2 0 0 0 0 0
2 2 1 2 2 1 0 0 0 0 0 0 0 0 0 0 0 0 0 0 0 0 0 0 1 2 2 3 3 2 2 2 1 1 1 2 3 2 0 0 0 0 0
2 1 1 1 1 1 0 0 0 0 0 0 0 0 0 0 0 0 0 0 0 0 0 0 0 0 0 1 1 0 1 1 0 0 0 1 2 1 0 0 0 0 0
1 0 0 0 0 0 0 0 0 0 0 0 0 0 0 0 0 0 0 0 0 0 0 0 0 0 0 0 0 0 0 0 0 0 0 0 0 0 0 0 0 0 0
0 0 0 0 0 0 0 0 0 0 0 0 0 0 0 0 0 0 0 0 0 0 0 0 0 0 0 0 0 0 0 0 0 0 0 0 0 0 0 0 0 0 0
0 0 0 0 0 0 0 0 0 0 0 0 0 0 0 0 0 0 0 0 0 0 0 0 0 0 0 0 0 0 0 0 0 0 0 0 0 0 0 0 0 0 0
0 0 0 0 0 0 0 0 0 0 0 0 0 0 0 0 0 0 0 0 0 0 0 0 0 0 0 0 0 0 0 0 0 0 0 0 0 0 0 0 0 0 0
0 0 0 0 0 0 0 0 0 0 0 0 0 0 0 0 0 0 0 0 0 0 0 0 0 0 0 0 0 0 0 0 0 0 0 0 0 0 0 0 0 0 0
0 0 0 0 0 0 0 0 0 0 0 0 0 0 0 0 0 0 0 0 0 0 0 0 0 0 0 0 0 0 0 0 0 0 0 0 0 0 0 0 0 0 0
0 0 0 0 0 0 0 0 0 0 0 0 0 0 0 0 0 0 0 0 0 0 0 0 0 0 0 0 0 0 0 0 0 0 0 0 0 0 0 0 0 0 0
0 0 0 0 0 0 0 0 0 0 0 0 0 0 0 0 0 0 0 0 0 0 0 0 0 0 0 0 0 0 0 0 0 0 0 0 0 0 0 0 0 0 0
0 0 0 0 0 0 0 0 0 0 0 0 0 0 0 0 0 0 0 0 0 0 0 0 0 0 0 0 0 0 0 0 0 0 0 0 0 0 0 0 0 0 0
0 0 0 0 0 0 0 0 0 0 0 0 0 0 0 0 0 0 0 0 0 0 0 0 0 0 0 0 0 0 0 0 0 0 0 0 0 0 0 0 0 0 0
0 0 0 0 0 0 0 0 0 0 0 0 0 0 0 0 0 0 0 0 0 0 0 0 0 0 0 0 0 0 0 0 0 0 0 0 0 0 0 0 0 0 0
0 0 0 0 0 0 0 0 0 0 0 0 0 0 0 0 0 0 0 0 0 0 0 0 0 0 0 0 0 0 0 0 0 0 0 0 0 0 0 0 0 0 0
0 0 0 0 0 0 0 0 0 0 0 0 0 0 0 0 0 0 0 0 0 0 0 0 0 0 0 0 0 0 0 0 0 0 0 0 0 0 0 0 0 0 0
0 0 0 0 0 0 0 0 0 0 0 0 0 0 0 0 0 0 0 0 0 0 0 0 0 0 0 0 0 0 0 0 0 0 0 0 0 0 0 0 0 0 0
0 0 0 0 0 0 0 0 0 0 0 0 0 0 0 0 0 0 0 0 0 0 0 0 0 0 0 0 0 0 0 0 0 0 0 0 0 0 0 0 0 0 0
0 0 0 0 0 0 0 0 0 0 0 0 0 0 0 0 0 0 0 0 0 0 0 0 0 0 0 0 0 0 0 0 0 0 0 0 0 0 0 0 0 0 0
0 0 0 0 0 0 0 0 0 0 0 0 0 0 0 0 0 0 0 0 0 0 0 0 0 0 0 0 0 0 0 0 0 0 0 0 0 0 0 0 0 0 0
0 0 0 0 0 0 0 0 0 0 0 0 0 0 0 0 0 0 0 0 0 0 0 0 0 0 0 0 0 0 0 0 0 0 0 0 0 0 0 0 0 0 0
Wind_Speed
5 5 4 4 4 3 4 4 3 3 4 3 3 3 3 3 4 4 4 12 13 13 14 14 14 14 13 13 12 11 11 10 10 9 8 8 7 7 7 6 6 6 6
4 4 4 4 4 4 4 4 4 3 3 2 2 2 2 2 3 3 3 6 10 10 11 12 13 13 13 12 11 11 10 10 10 9 9 8 8 8 7 7 7 7 7
4 4 4 4 4 3 3 2 2 1 1 1 0 1 1 1 3 3 3 2 3 7 8 9 9 10 11 11 10 10 9 8 8 8 8 8 7 7 7 7 7 7 7
4 4 4 3 3 2 2 2 1 1 1 1 1 2 2 2 2 3 2 2 2 1 3 5 6 7 9 10 10 9 9 8 7 7 6 6 6 6 6 6 6 7 7
4 4 3 2 3 2 2 2 2 2 1 1 1 2 3 3 3 3 3 2 2 2 1 2 5 6 6 7 7 7 6 6 5 5 5 4 3 3 3 4 4 5 6
4 4 3 3 3 3 2 2 2 2 2 1 2 3 2 2 3 3 3 3 2 2 2 0 1 2 4 4 4 5 5 4 4 4 4 3 2 1 1 1 2 4 5
4 4 4 4 4 3 2 2 2 3 2 1 2 2 2 2 3 2 2 3 3 2 2 1 1 1 1 1 1 3 3 3 3 3 2 1 1 1 1 2 3 3 4
6 5 6 5 4 3 4 4 3 2 2 2 2 1 1 2 2 3 2 2 3 2 3 2 2 2 2 1 3 3 2 1 1 1 2 3 3 3 3 4 4 5 6
9 8 8 6 5 5 4 4 4 2 1 2 2 2 2 1 0 2 3 3 3 3 2 2 3 3 3 3 2 4 6 6 5 5 4 4 4 5 6 6 7 7 8
10 10 8 8 7 6 6 5 6 4 3 2 2 3 2 1 1 0 1 2 2 3 2 2 2 2 3 2 4 6 6 6 6 5 5 5 6 6 7 8 9 10 11
10 10 9 8 8 7 7 7 7 7 5 4 3 2 3 3 3 1 1 2 2 2 2 2 2 2 2 2 2 3 4 4 4 4 4 5 6 7 8 9 10 11 12
7 9 10 8 8 7 7 7 7 9 7 7 6 5 4 3 2 2 1 1 2 2 2 2 2 2 1 1 0 2 2 1 1 3 5 6 8 8 10 11 11 12 12
7 8 8 8 7 7 7 7 8 9 9 9 8 5 5 5 3 2 2 2 2 2 3 3 2 2 1 1 1 1 2 3 5 6 7 9 10 11 11 11 12 13 13
7 7 8 9 9 8 8 7 8 8 8 8 9 6 5 5 4 4 2 2 2 3 3 4 2 3 2 1 2 3 3 6 8 9 10 11 12 13 13 13 13 13 13
7 8 9 9 8 8 8 7 7 7 6 6 6 6 5 4 4 4 3 2 2 1 2 3 3 3 3 2 3 2 4 8 10 10 11 12 12 13 14 14 15 14 14
7 8 8 8 8 8 7 7 6 6 6 5 4 5 5 3 4 4 3 3 2 2 0 2 2 3 3 3 4 3 5 10 11 12 12 12 12 13 14 14 15 14 15
7 7 7 7 7 7 6 6 5 5 6 5 5 5 5 4 4 4 3 3 3 2 1 2 2 3 3 4 5 4 5 5 5 12 12 12 12 12 12 13 14 14 14
6 6 7 7 7 7 6 6 6 6 5 5 4 5 4 4 5 4 3 4 3 2 1 2 3 3 4 4 4 5 5 5 5 10 12 12 11 11 11 11 12 12 12
6 6 7 7 6 6 6 6 5 5 4 4 3 3 2 3 4 3 3 3 2 3 1 1 3 3 3 3 4 4 5 4 6 8 9 9 10 11 11 11 11 12 12
6 6 6 6 6 6 6 6 5 5 5 4 4 3 2 1 1 2 2 3 2 3 2 2 3 3 3 3 2 3 4 4 5 6 6 7 9 11 11 11 11 11 11
6 5 5 5 5 5 5 5 5 5 5 5 5 4 3 2 2 2 2 2 2 2 2 2 3 3 3 3 3 3 4 5 5 3 3 5 5 5 6 8 10 10 10
5 5 5 5 5 4 6 8 6 4 4 4 4 4 3 2 4 7 8 8 5 3 3 2 3 4 5 4 3 3 3 3 5 3 2 5 3 4 5 4 7 9 9
4 5 4 4 4 4 8 9 9 4 4 4 3 3 2 2 4 4 7 9 8 9 6 4 4 5 5 4 3 4 4 3 5 4 2 4 3 4 4 5 8 9 9
3 2 2 2 2 4 7 9 9 6 4 5 4 2 1 2 3 4 5 6 7 7 7 4 5 7 7 7 5 4 4 4 5 4 2 3 4 4 4 4 7 8 8
2 1 2 2 1 2 5 8 8 4 4 6 5 4 2 2 6 6 5 6 8 7 7 8 9 10 12 12 7 2 2 2 4 4 1 1 3 3 3 3 5 8 8
1 2 2 2 1 0 4 6 7 3 4 4 5 5 5 6 9 8 4 4 6 7 7 10 10 10 7 7 7 4 4 2 2 4 3 1 2 2 4 4 3 4 4
Wind_Direction
190 189 189 187 195 204 208 209 211 223 231 238 233 224 216 204 195 193 200 198 198 201 197 194 196 196 196 196 195 194 195 196 195 193 192 193 195 194 194 194 194 193 194
182 181 184 186 194 203 207 203 201 212 220 216 221 200 177 164 170 167 178 189 194 198 197 197 197 199 200 200 199 199 199 200 200 198 195 196 197 198 198 198 198 198 197
179 171 172 179 192 191 188 172 177 177 179 156 67 35 67 96 126 142 152 154 178 195 194 196 196 197 197 195 194 195 195 195 195 194 195 197 197 197 199 201 201 200 199
163 151 151 169 169 147 140 141 135 107 63 55 54 40 46 56 89 111 119 134 141 163 195 191 188 193 196 196 196 194 191 188 186 185 185 187 189 194 198 203 207 210 210
135 132 130 132 123 111 102 116 92 102 86 58 72 71 61 64 64 82 86 93 104 109 113 181 180 177 189 193 190 187 183 181 182 185 185 183 184 186 195 209 216 218 218
95 101 96 86 85 82 72 78 90 72 75 62 65 63 58 68 71 70 71 65 64 72 68 73 163 164 185 189 183 180 176 174 167 153 147 132 106 89 103 250 249 241 235
81 84 80 70 69 76 74 74 87 69 41 25 69 48 46 63 69 70 72 70 61 57 61 52 57 72 84 104 201 200 186 164 146 135 117 96 64 25 346 321 318 305 282
66 73 73 69 60 65 51 43 61 85 51 35 95 99 32 21 44 51 53 65 64 56 59 59 62 74 77 75 70 80 76 83 118 94 66 46 32 13 353 343 330 316 307
61 61 64 66 59 65 64 48 48 79 97 39 44 111 141 209 355 37 43 46 51 51 45 50 59 67 77 70 71 72 75 67 64 57 46 35 16 358 342 330 321 314 308
59 61 60 62 59 55 55 49 49 50 70 61 35 33 59 89 126 45 33 31 41 46 40 50 49 53 72 79 84 87 80 69 55 41 29 16 358 346 337 328 320 314 309
60 64 61 58 60 57 54 52 52 54 56 62 51 30 34 38 36 79 32 355 6 17 27 45 53 48 62 81 93 103 93 75 46 13 352 341 334 327 320 314 310 307 303
59 59 66 63 60 59 55 55 58 58 56 59 56 49 47 48 28 40 55 6 352 347 5 28 42 40 33 26 104 120 120 123 295 294 301 307 309 311 309 306 302 299 298
66 57 62 63 60 58 57 58 62 59 55 58 56 52 50 46 35 38 60 31 10 347 5 18 15 27 19 359 313 289 275 271 269 269 276 283 290 294 295 296 294 293 295
74 69 68 66 62 60 60 57 60 59 58 59 58 54 50 39 38 41 52 57 34 1 10 0 349 7 353 327 301 293 283 281 279 273 272 276 281 284 285 285 284 286 288
79 71 69 66 62 59 56 57 59 55 57 57 55 52 50 34 34 36 41 61 92 44 344 331 338 332 331 317 304 291 278 277 280 280 277 276 277 278 278 278 278 277 278
73 70 66 64 59 54 53 56 55 51 53 45 47 48 43 30 30 28 31 36 61 111 337 298 299 300 318 329 312 292 276 289 289 291 289 286 284 281 278 278 278 277 276
72 70 67 66 60 52 46 48 48 52 54 46 43 49 41 38 32 21 25 32 33 66 53 299 294 311 328 325 317 310 297 292 294 301 299 297 293 288 284 281 278 276 274
71 71 68 64 61 55 46 47 45 44 49 47 41 44 34 42 34 23 28 28 22 37 63 324 310 319 315 314 312 312 316 314 304 300 299 298 296 295 292 286 280 275 273
73 71 71 67 60 51 44 38 39 38 34 30 32 40 28 44 27 13 19 14 357 3 18 338 303 298 297 316 326 315 315 308 310 307 304 305 308 307 302 293 285 279 276
81 82 78 73 64 54 44 32 30 32 21 10 6 9 10 41 28 2 1 346 339 344 340 333 305 301 297 299 315 314 321 316 310 311 313 313 311 312 307 301 295 288 283
88 93 86 71 62 56 39 33 22 22 13 3 359 0 359 32 29 358 339 317 324 320 318 316 305 307 303 314 315 302 306 308 303 287 309 305 304 302 302 302 300 295 291
81 85 79 71 56 44 28 28 28 15 6 2 351 345 342 20 6 358 345 336 320 292 288 281 283 291 287 283 280 284 294 322 309 295 313 297 294 291 290 285 288 293 292
86 93 93 86 67 26 23 20 22 27 11 359 347 339 339 8 1 345 337 337 330 317 295 246 257 270 271 270 276 288 281 268 262 272 303 288 297 294 293 301 308 306 303
100 111 119 107 70 22 21 20 21 27 17 3 352 342 340 328 327 335 330 328 319 310 298 277 247 261 264 265 245 245 261 282 277 269 223 269 297 299 307 316 322 327 323
103 127 137 130 88 0 8 20 29 15 7 355 349 349 325 295 302 324 326 321 318 310 305 304 291 282 280 278 265 236 264 285 304 299 262 239 289 307 311 312 323 339 338
129 128 126 156 156 333 350 11 25 16 360 344 336 333 323 309 308 314 298 295 304 302 316 323 323 320 310 303 297 223 218 229 264 290 282 275 292 332 325 308 314 330 339